Location: Santa Margarita Branch San Luis Obispo City-County Library
(35.3880°N, 120.6085°W)
Time: 05:52:10
(UTC+00:00)

Daily predictions for brighter satellites

Satellite Brightness Start Highest point End
(mag) Time Altitude Azimuth Time Altitude Azimuth Time Altitude Azimuth
Cosmos 158 Rocket 4.1 03:39:40 10° N 03:44:26 53° ENE 03:49:10 10° SSE
SJ-6B 3.9 03:42:11 10° S 03:45:32 40° W 03:48:52 10° NNW
GP-B 3.4 03:41:22 10° NNE 03:45:35 47° E 03:49:47 10° SSE
Cosmos 1328 3.6 03:42:05 10° S 03:45:38 58° E 03:49:15 10° NNE
CSL-04 Debris 4.3 03:42:17 10° SSE 03:47:31 58° ENE 03:52:46 10° N
USA 186 2.3 03:46:48 10° SE 03:49:15 31° ENE 03:51:44 10° N
Cosmos 1703 Rocket 4.4 03:47:27 10° SSW 03:51:40 55° W 03:55:56 10° N
Cosmos 1461 2.9 03:48:32 10° NNW 03:52:37 75° WSW 03:56:35 10° SSE
CZ-4B DEB 4.2 03:49:52 10° SSE 03:55:16 79° ENE 04:00:43 10° N
ADEOS 3.6 03:50:17 10° SSE 03:55:26 69° ENE 04:00:37 10° N
COSMOS 2406 4.0 03:50:39 10° N 03:55:54 36° ENE 04:01:02 10° SE
Terra 3.4 03:52:52 10° ESE 03:56:10 19° ENE 03:59:28 10° NNE
Cosmos 1656 Rocket 3.7 03:51:15 10° S 03:56:41 57° ESE 04:02:05 10° NNE
CSL-04 Rocket 3.7 03:51:23 10° SSE 03:56:43 73° ENE 04:02:10 10° N
Cosmos 2242 Rocket 4.3 03:53:10 10° SSE 03:57:06 34° E 04:01:03 10° NNE
NOSS 3-3 (C) 4.4 03:53:01 10° SW 03:58:00 56° NW 04:03:45 10° NNE
CZ-4B R/B 3.4 03:55:30 10° SSE 04:00:39 53° ENE 04:05:57 10° N
CZ-2C R/B 2.4 03:59:07 10° S 04:02:20 76° W 04:05:33 10° NNW
ERS-1 Rocket 4.1 03:58:55 10° SE 04:03:06 28° ENE 04:07:18 10° NNE
SPOT 5 3.2 03:59:01 10° SSE 04:04:07 59° ENE 04:09:20 10° N
Cosmos 1782 Rocket 3.6 03:59:58 10° N 04:04:22 66° E 04:08:41 10° SSE
Meteor 1-24 Rocket 4.4 04:00:19 10° SSW 04:05:50 58° W 04:11:12 10° N
CZ-4B R/B 3.6 04:03:58 12° SE 04:06:42 30° ENE 04:09:56 10° N
CZ-4C R/B 3.0 04:09:47 14° ESE 04:10:39 15° ESE 04:13:05 10° ENE
Cosmos 1340 Rocket 4.3 04:09:24 10° NNE 04:12:16 20° ENE 04:14:05 15° ESE
Cosmos 2082 Rocket 2.2 04:08:15 10° NNW 04:14:00 88° ENE 04:19:42 10° SSE
Cosmos 292 Rocket 4.5 04:09:32 10° SSW 04:14:14 58° WNW 04:18:56 10° N
Cosmos 2369 Rocket 2.4 04:15:51 10° S 04:21:18 50° ESE 04:26:47 10° NNE
Cosmos 220 Rocket 3.9 04:18:21 10° NNW 04:22:36 71° ENE 04:25:53 16° SSE
Helios 1A 3.5 04:19:34 10° NNE 04:23:10 34° E 04:25:48 16° SSE
Resurs 01 Rocket 4.0 04:22:39 10° SW 04:26:00 21° W 04:29:21 10° NW
Cosmos 1300 Rocket 3.9 04:21:47 10° NNW 04:26:06 63° W 04:30:20 10° S
Helios 1B rocket 2.6 04:25:27 20° SE 04:27:36 42° ENE 04:31:05 10° N
Cosmos 2208 Rocket 4.4 04:26:11 10° N 04:31:18 49° ENE 04:34:41 21° SE
Cosmos 1503 Rocket 4.0 04:26:31 10° S 04:31:34 58° ESE 04:36:38 10° NNE
Okean-O 3.0 04:32:26 21° SE 04:35:00 47° ENE 04:39:12 10° N
Tiangong -2.0 04:35:26 10° SW 04:38:36 52° SSE 04:40:16 24° E
Cosmos 1354 Rocket 4.2 04:35:37 10° S 04:40:37 49° ESE 04:45:38 10° NNE
Cosmos 2263 4.3 04:35:32 10° S 04:41:03 54° ESE 04:46:32 10° NNE
Cosmos 1378 Rocket 3.5 04:38:41 17° S 04:41:55 61° E 04:46:09 10° NNE
Okean O Rocket 1.5 04:39:40 20° SSE 04:42:36 80° ENE 04:47:00 10° N
DELTA 2 R/B (1) 3.5 04:38:50 10° WSW 04:44:21 73° SSE 04:49:52 10° ENE
Cosmos 836 Rocket 4.5 04:40:26 10° NNW 04:45:43 76° ENE 04:48:57 24° SSE
Cosmos 1025 Rocket 3.9 04:47:33 28° ESE 04:48:22 30° E 04:52:09 10° NNE
Cosmos 1634 Rocket 3.9 04:43:53 10° N 04:50:05 87° E 04:54:59 17° S
Cosmos 773 Rocket 4.1 04:45:38 10° N 04:50:52 61° ENE 04:53:31 29° SE
MetOp-B 4.3 04:48:24 15° S 04:52:48 72° WSW 04:58:10 10° NNW
Ariane Rocket 4.2 04:52:03 22° E 04:53:40 26° ENE 04:57:49 10° NNE
ASTEX 1 3.9 04:52:57 10° NNE 04:57:28 38° E 04:58:39 33° SE
Meteor PRIRODA 3.3 04:57:28 45° SSW 04:58:04 59° W 05:00:52 10° NNW
CZ-4B R/B 4.1 04:55:30 15° S 04:59:46 57° WSW 05:04:53 10° NNW
BREEZE-M R/B 3.6 04:58:30 10° NNW 04:59:47 28° NNE 04:59:47 28° NNE
Cosmos 1777 Rocket 4.4 04:57:11 10° SSW 05:02:21 64° WNW 05:07:31 10° N
IRS-1A Rocket 4.2 05:00:24 26° SSE 05:03:39 88° ENE 05:09:12 10° NNW
Cosmos 2279 Rocket 3.9 05:01:36 10° N 05:07:52 81° E 05:11:27 27° S
Cosmos 1867 4.2 05:17:38 35° E 05:17:38 35° E 05:22:06 10° NE
Meteor 2-12 Rocket 4.3 05:13:31 24° S 05:17:21 79° E 05:23:30 10° N
SPOT 3 Rocket 3.8 05:18:24 42° ESE 05:19:46 54° ENE 05:24:51 10° N
BREEZE M DEB (TANK) 3.6 05:15:15 10° WSW 05:23:17 65° NW 05:26:15 10° NE
Cosmos 44 2.9 05:20:30 18° SSW 05:23:41 81° WNW 05:28:02 10° NNE
IRS-1C Rocket 4.0 05:23:37 46° SE 05:25:10 73° ENE 05:30:25 10° N
Spot 2 Rocket 3.6 05:26:28 39° S 05:28:20 73° WSW 05:33:26 10° NNW
Meteor 1-11 4.2 05:26:01 32° S 05:28:51 85° E 05:34:41 10° N
Cosmos 1812 4.4 05:26:27 10° NNE 05:27:43 19° NE 05:27:43 19° NE
Okean 2 Rocket 2.9 05:25:34 10° N 05:29:57 84° E 05:30:27 69° SSE
TSX-5 3.7 05:27:54 10° NNW 05:30:40 64° NNW 05:30:40 64° NNW
Terra 3.0 05:31:06 23° SSW 05:33:23 37° W 05:37:45 10° NNW
Cosmos 1898 Rocket 4.3 05:34:56 34° E 05:34:56 34° E 05:38:51 10° NE
Cosmos 1818 4.0 05:31:07 10° NNW 05:36:23 49° ENE 05:37:24 43° E
Cosmos 2151 Rocket 3.9 05:32:07 10° NNW 05:36:33 63° W 05:37:30 49° SSW
Meteor 2-1 Rocket 4.4 05:33:52 10° N 05:39:33 54° E 05:40:22 50° ESE
Cosmos 2221 Rocket 4.2 05:39:27 35° SW 05:41:04 54° W 05:45:30 10° N
Cosmos 1975 Rocket 4.3 05:43:31 29° NE 05:43:31 29° NE 05:46:09 10° NNE
SAR-Lupe-2 4.1 05:46:18 56° NW 05:46:18 56° NW 05:49:15 10° NNW
Okean 1 Rocket 2.9 05:41:29 10° N 05:45:51 84° W 05:45:51 84° W
Cosmos 1455 Rocket 3.7 05:53:52 10° N 05:57:12 46° NE 05:57:12 46° NE
CZ-4C R/B 3.0 05:54:33 11° WSW 05:58:12 38° NW 06:02:47 10° NNE
Aureole 1 Rocket 3.9 05:59:04 52° S 06:00:46 85° ESE 06:08:01 10° NNE
Sich 1 Rocket 4.3 05:56:42 10° NNW 06:01:04 48° W 06:01:24 47° WSW
Cosmos 1627 Rocket 4.3 06:00:40 64° SE 06:01:27 72° E 06:07:33 10° N
NOSS 3-4 (A) 4.0 06:04:19 10° NW 06:11:34 71° WSW 06:13:42 51° S
NOSS 3-4 (C) 4.0 06:04:23 10° NW 06:11:38 72° WSW 06:13:42 52° S
Tiangong 1.1 06:12:44 10° W 06:12:49 11° W 06:12:49 11° W
Cosmos 372 Rocket 4.0 06:16:51 73° WNW 06:16:51 73° WNW 06:21:54 10° NNE
Cosmos 2297 Rocket 4.2 06:19:28 10° NNE 06:22:44 15° NE 06:23:35 15° ENE
DELTA 2 R/B (1) 4.0 06:25:25 10° W 06:30:53 58° N 06:32:24 43° NE
Ariane Rocket 4.3 06:32:08 30° WSW 06:32:22 30° W 06:36:49 10° NW
Cosmos 2026 Rocket 4.3 06:31:48 52° WSW 06:32:49 59° W 06:38:47 10° N
Cosmos 1937 Rocket 3.8 06:34:00 61° N 06:34:00 61° N 06:38:15 10° NNE
Cosmos 1553 Rocket 4.0 06:48:21 10° N 06:54:15 72° NE 06:54:15 72° NE
Cosmos 2263 Rocket 4.4 07:40:43 10° NNE 07:44:06 16° NE 07:45:10 15° ENE
Cosmos 2297 Rocket 3.2 08:01:40 10° NNW 08:05:21 41° NW 08:05:21 41° NW
Cosmos 1980 Rocket 3.2 08:12:50 41° NE 08:12:50 41° NE 08:16:27 10° NNE
Cosmos 1697 Rocket 3.7 08:16:52 41° NW 08:16:52 41° NW 08:21:21 10° N
CZ-2C R/B 4.0 08:23:44 32° ENE 08:23:44 32° ENE 08:28:19 10° N
Meteor 2-3 Rocket 4.5 08:26:26 50° NNW 08:26:26 50° NNW 08:30:50 10° N
ATLAS 2AS CENTAUR R/B 3.9 08:29:31 10° NNW 08:35:35 34° NE 08:38:28 25° E
Cosmos 2227 Rocket 3.0 08:34:21 10° NNW 08:38:15 46° NNW 08:38:15 46° NNW
USA 215 3.3 08:39:40 68° ENE 08:40:05 70° NE 08:46:36 10° NW
Gbstr 26 Del rocket 4.4 08:34:47 10° NW 08:39:28 57° NW 08:39:28 57° NW
IDEFIX/ARIANE 42P 4.5 08:42:06 10° NE 08:44:57 21° ENE 08:44:57 21° ENE
SME Rocket 4.4 08:57:01 10° NNE 09:07:13 90° SSE 09:07:54 77° SSW
Cosmos 2322 Rocket 3.8 09:12:01 24° E 09:12:01 24° E 09:15:56 10° NE
Nimbus 7 Rocket 4.5 09:11:07 10° NNE 09:16:43 77° N 09:16:43 77° N
Nadezhda 1 Rocket 3.9 09:18:02 10° N 09:23:42 76° NNW 09:23:42 76° NNW
Cosmos 1745 Rocket 4.1 09:27:30 67° WNW 09:27:30 67° WNW 09:33:29 10° N
Cosmos 2263 Rocket 2.9 09:22:55 10° NNW 09:26:47 44° NW 09:26:47 44° NW
Lacrosse 5 rocket 4.0 09:25:48 10° NNW 09:26:24 14° NNW 09:26:24 14° NNW
CZ-2C R/B 4.2 09:25:53 10° N 09:28:54 31° NW 09:28:54 31° NW
CENTAUR R/B 2.6 09:32:59 56° E 09:32:59 56° E 09:38:26 10° NE
Cosmos 2082 3.8 09:30:21 10° NNW 09:35:20 69° N 09:35:20 69° N
Cosmos 44 Rocket 4.1 09:38:04 45° NE 09:38:04 45° NE 09:41:23 10° NNE
Cosmos 1709 Rocket 3.9 09:40:29 75° W 09:40:29 75° W 09:46:46 10° N
SL-16 R/B 2.2 09:42:49 77° NE 09:42:49 77° NE 09:48:06 10° NNE
Cosmos 2333 Rocket 2.6 09:45:39 54° ESE 09:45:39 54° ESE 09:51:06 10° NNE
MSX 3.7 09:39:55 10° NNE 09:45:36 83° E 09:45:36 83° E
FENGYUN 3A 4.1 09:40:54 10° NNE 09:46:12 53° E 09:46:13 53° ESE
NOSS 3-2 (A) 4.3 09:47:01 29° E 09:47:01 29° E 09:51:09 10° NE
Cosmos 2219 4.0 09:46:12 10° NNW 09:50:00 38° WNW 09:50:00 38° WNW
Cosmos 1980 Rocket 4.2 09:54:34 15° WNW 09:55:22 15° NW 09:58:36 10° NNW
Meteor 1-10 Rocket 4.2 09:51:25 10° N 09:57:14 87° E 09:57:32 81° SSE
Cosmos 1238 Rocket 4.0 09:53:03 10° NNW 09:56:45 45° NW 09:56:45 45° NW
Meteor 1-20 Rocket 4.3 10:03:33 63° W 10:03:33 63° W 10:09:15 10° N
CZ-2C R/B 4.1 10:05:12 25° WNW 10:05:12 25° WNW 10:08:20 10° NW
NPP 3.6 09:59:39 10° N 10:05:00 72° WNW 10:05:00 72° WNW
Cosmos 1953 Rocket 4.2 10:09:29 48° NNW 10:09:29 48° NNW 10:12:44 10° N
H-2A R/B 2.5 10:04:22 10° NNE 10:07:58 60° NE 10:07:58 60° NE
Cosmos 2221 4.4 10:05:02 10° NNW 10:06:45 21° NW 10:06:45 21° NW
ARIANE 6 FM1 Upper Stage 4.0 10:11:13 31° E 10:11:13 31° E 10:13:56 10° NE
H-2A R/B 4.0 10:12:35 14° ESE 10:12:35 14° ESE 10:14:59 10° ESE
Resurs 1-4 Rocket 2.2 10:07:39 10° NNE 10:12:55 65° ESE 10:13:36 59° SE
Milstar 3 Cent rocket 3.5 10:15:47 33° SSE 10:15:47 33° SSE 10:19:47 10° ESE
SeaSat 1 3.5 10:18:30 11° SE 10:22:51 43° ENE 10:27:29 10° N
Cosmos 1844 Rocket 2.9 10:18:44 10° NNW 10:24:20 67° ENE 10:27:29 26° SE
IDEFIX/ARIANE 42P 3.3 10:20:56 10° N 10:25:37 36° WNW 10:25:38 36° WNW
Cosmos 2333 4.2 10:25:05 58° S 10:26:06 74° ESE 10:31:43 10° NNE
ATLAS 2AS CENTAUR R/B 3.1 10:20:16 10° NW 10:25:47 41° W 10:25:47 41° W
CZ-2D R/B 2.0 10:22:20 10° NNE 10:27:33 81° ESE 10:28:24 63° S
Cosmos 1844 4.0 10:24:08 10° NNW 10:29:49 67° ENE 10:34:08 18° SSE
Cosmos 2227 4.1 10:24:10 10° NNW 10:29:53 83° WSW 10:31:35 48° SSE
Cosmos 2360 Rocket 2.1 10:31:48 60° SW 10:32:42 73° WNW 10:38:20 10° NNE
Cosmos 2184 Rocket 3.9 10:38:07 45° SSW 10:40:15 81° W 10:46:40 10° N
OAO 3 Rocket 3.0 10:40:19 68° W 10:40:55 87° S 10:45:38 10° E
MOZ.5/SAFIR/RUBIN 5/SL-8 4.4 10:42:40 39° WNW 10:42:40 39° WNW 10:46:24 10° NNW
Cosmos 1269 Rocket 4.0 10:39:10 10° NNW 10:44:21 58° WSW 10:44:57 54° SW
Cosmos 2219 Rocket 2.1 10:45:24 46° S 10:47:08 82° ESE 10:52:45 10° NNE
ALOS 2.1 10:42:39 10° NNE 10:47:14 87° ESE 10:48:09 57° S
Cosmos 1805 4.4 10:46:38 27° ESE 10:47:24 31° E 10:50:29 10° NNE
H-2A R/B 3.5 10:47:22 10° NE 10:51:37 29° E 10:55:14 13° SSE
Cosmos 1707 3.4 10:48:50 10° NNW 10:50:59 36° NNW 10:50:59 36° NNW
Cosmos 2154 Rocket 3.9 10:50:20 39° SSW 10:52:45 75° W 10:59:05 10° N
Cosmos 2322 Rocket 2.9 10:53:49 34° W 10:55:13 39° WNW 11:00:28 10° N
ATLAS 5 CENTAUR R/B 2.1 10:50:40 10° NNW 10:55:37 83° ENE 11:01:44 10° SSE
ADEOS II 2.0 10:53:01 10° N 10:58:14 73° WNW 11:00:02 41° SSW
NOSS 2-2 (C) 3.0 11:00:00 64° SE 11:00:11 66° ESE 11:03:18 10° NE
Cosmos 1624 Rocket 4.5 10:59:06 27° S 11:01:46 56° ESE 11:06:55 10° NNE
Cosmos 1420 Rocket 3.9 11:00:10 41° SSW 11:02:06 85° WNW 11:07:22 10° NNE
DMSP B5D2-2 4.4 10:58:15 10° SSE 11:03:25 64° ENE 11:08:34 10° N
Cosmos 2251 Rocket 4.5 10:59:42 10° N 11:04:47 47° ENE 11:09:48 10° SE
Cosmos 2074 Rocket 4.3 11:03:03 35° SW 11:05:09 47° W 11:11:08 10° N
Envisat 3.0 11:03:32 10° N 11:08:34 69° WNW 11:10:36 36° SSW
Cosmos 1842 Rocket 4.4 11:05:12 10° NNW 11:08:55 31° W 11:08:55 31° W
Cosmos 1842 4.0 11:10:44 10° NNW 11:13:04 29° WNW 11:13:04 29° WNW
Meteor 1-18 Rocket 4.1 11:09:24 10° N 11:14:58 84° W 11:19:47 14° S
Cosmos 2056 Rocket 3.5 11:12:14 28° S 11:15:00 79° ESE 11:20:10 10° NNE
Cosmos 1371 Rocket 4.0 11:14:40 27° S 11:17:39 82° ESE 11:22:58 10° NNE
Meteor 2-13 Rocket 4.4 11:12:53 10° N 11:19:03 83° W 11:25:09 10° S
CENTAUR R/B 4.0 11:20:04 13° W 11:23:30 22° NW 11:28:31 10° N
Meteor 2-10 4.1 11:21:23 29° SSW 11:23:59 61° W 11:29:03 10° N
ATLAS CENTAUR R/B 1.1 11:23:42 42° WSW 11:24:43 64° WNW 11:28:27 10° NNE
SL-16 R/B 4.3 11:24:48 10° WNW 11:27:13 13° NW 11:29:39 10° NNW
NOSS 3-2 (C) 2.9 11:25:01 28° SSW 11:27:43 86° ESE 11:33:19 10° NNE
Cosmos 1536 2.5 11:27:16 31° SSW 11:28:56 79° W 11:32:40 10° N
Cosmos 2333 Rocket 3.9 11:27:39 15° W 11:30:10 20° NW 11:34:13 10° N
ARGOS Delta rocket 4.2 11:29:48 10° NNE 11:34:52 68° E 11:39:34 10° S
SL-16 R/B 2.5 11:30:49 10° SSE 11:37:03 88° WSW 11:43:21 10° NNW
NOSS 3-2 (A) 4.3 11:34:22 18° W 11:37:09 29° NW 11:42:06 10° NNE
OAO 2 Rocket 4.2 11:36:39 24° SW 11:37:22 25° SSW 11:41:26 10° SSE
SJ 16-02 3.7 11:33:50 10° N 11:37:25 25° ENE 11:40:58 10° SE
CZ-2C R/B 3.2 11:35:54 10° NNE 11:40:54 54° E 11:45:54 10° S
AQUA 4.3 11:36:53 10° N 11:41:20 43° WNW 11:44:03 21° SW
Cosmos 1151 Rocket 3.3 11:39:00 10° NNW 11:43:06 45° W 11:46:01 17° SSW
Delta 2 Rocket 3.3 11:39:50 15° W 11:43:17 88° S 11:47:30 10° E
Cosmos 405 Rocket 3.0 11:43:53 27° WSW 11:44:51 34° WNW 11:47:50 10° N
NOSS 2-2 (E) 2.9 11:43:47 24° SW 11:45:51 78° WNW 11:49:00 10° NNE
Meteor 1-11 Rocket 4.2 11:40:33 10° S 11:46:07 63° E 11:51:49 10° NNE
SL-8 Rocket 3.9 11:42:42 10° S 11:48:50 77° W 11:55:04 10° N
ARIANE 6 FM1 Upper Stage 4.5 11:47:19 13° W 11:49:27 19° NW 11:52:19 10° N
USA 238 DEB 4.4 11:44:57 10° S 11:50:32 42° ESE 11:56:29 10° NE
USA 238 4.5 11:45:04 10° S 11:50:38 42° ESE 11:56:35 10° NE
Resurs 1-4 Rocket 4.0 11:49:18 10° NNW 11:52:05 15° WNW 11:54:38 11° W
Meteor 1-28 Rocket 2.8 11:50:22 10° S 11:53:41 66° W 11:57:01 10° NNW
COSMOS 2428 2.7 11:49:13 15° SSW 11:54:01 76° WNW 11:59:44 10° NNE
